Weather in Uporovo

Russia / Tyumen Oblast     56°18′39″N   66°16′18″E
temp.,
°C
wind,
m/s
gust,
m/s
humid.,
%
clouds,
%
prec.,
mm/h
press.,
hPa
HPBL,
m
12 april, mon
mon1223:00+3ssw5138417 0.0 1034270
02:00+2sw5138736 0.0 1034261
05:00+2sw499255 0.0 1033171
08:00+3sw3599100 0.0 1033118
11:00+5wsw25100100 0.2 1033122
14:00+5w37100100 0.3 1033164
17:00+8wnw2495100 0.3 1035155
20:00+6nw3788100 0.0 1036112
13 april, tue
tue1323:00+4nnw33874 0.0 103827
02:00+2n22851 0.0 103912
05:00+1nnw22850 0.0 104114
08:00+4nw23770 0.0 1042130
11:00+8wnw34570 0.0 1042606
14:00+11w344546 0.0 10411000
17:00+11wsw46515 0.0 1039870
20:00+7wsw33726 0.0 103827
14 april, wed
wed1423:00+5sw388363 0.0 1037134
02:00+5sw41285100 0.0 1035244
05:00+4sw5138598 0.0 1034296
08:00+6sw5128380 0.0 1033377
11:00+12wsw687166 0.0 1032605
14:00+16w675966 0.0 10301005
17:00+16w576229 0.0 10291043
20:00+12wsw35845 0.0 102871
15 april, thu
thu1523:00+10wsw35905 0.0 102884
02:00+9wsw35928 0.0 102780
05:00+8wsw229313 0.0 102720
08:00+11wsw24855 0.0 1026148
11:00+16w456224 0.0 1025900
14:00+18wsw564612 0.0 10221427
17:00+19wsw575114 0.0 10201414
20:00+14wsw36725 0.0 101982
16 april, fri
fri1623:00+11sw38825 0.0 1018118
02:00+9sw388244 0.0 1016131
05:00+7wsw3384100 0.0 101531
08:00+10wsw2672100 0.0 1015170
11:00+15w3551100 0.0 1013683
14:00+16nnw5552100 0.0 10121441
17:00+11n557682 0.0 1012715
20:00+5ne71085100 0.1 1014522